| time (UTC) | temp F | wind direction | speed MPH | gust MPH | rain 1hr in | rain 24hr in | rain mn in | humidity % | barometer mb |
| 20260902150712 | 86 | 1.0 | 8.0 | 0.00 | 0.00 | 0.00 | 11 | 1010.0 | |
| 20260902145700 | 84 | 3.0 | 8.0 | 0.00 | 0.00 | 0.00 | 11 | 1010.1 | |
| 20260902144649 | 84 | 3.0 | 9.0 | 0.00 | 0.00 | 0.00 | 11 | 1010.1 | |
| 20260902143634 | 86 | 5.0 | 8.0 | 0.00 | 0.00 | 0.00 | 11 | 1010.3 | |
| 20260902142623 | 87 | 2.0 | 7.0 | 0.00 | 0.00 | 0.00 | 11 | 1010.3 | |
| 20260902141612 | 84 | 2.0 | 7.0 | 0.00 | 0.00 | 0.00 | 11 | 1010.3 | |
| 20260902140600 | 86 | 4.0 | 8.0 | 0.00 | 0.00 | 0.00 | 11 | 1010.4 | |
| 20260902135545 | 86 | 3.0 | 6.0 | 0.00 | 0.00 | 0.00 | 11 | 1010.5 | |
| 20260902134534 | 84 | 5.0 | 8.0 | 0.00 | 0.00 | 0.00 | 11 | 1010.5 | |
| 20260902133522 | 86 | 4.0 | 9.0 | 0.00 | 0.00 | 0.00 | 11 | 1010.6 | |
| 20260902132511 | 84 | 3.0 | 7.0 | 0.00 | 0.00 | 0.00 | 11 | 1010.6 | |
| 20260902131500 | 86 | 2.0 | 6.0 | 0.00 | 0.00 | 0.00 | 11 | 1010.5 | |
| 20260902130447 | 84 | 6.0 | 9.0 | 0.00 | 0.00 | 0.00 | 11 | 1010.6 | |
| 20260902125432 | 84 | 4.0 | 7.0 | 0.00 | 0.00 | 0.00 | 11 | 1010.7 | |
| 20260902124420 | 84 | 5.0 | 9.0 | 0.00 | 0.00 | 0.00 | 11 | 1010.7 | |
| 20260902123409 | 84 | 5.0 | 7.0 | 0.00 | 0.00 | 0.00 | 11 | 1010.9 | |
| 20260902122355 | 87 | 1.0 | 5.0 | 0.00 | 0.00 | 0.00 | 11 | 1010.9 | |
| 20260902121344 | 86 | 3.0 | 6.0 | 0.00 | 0.00 | 0.00 | 11 | 1010.9 | |
| 20260902120332 | 86 | 4.0 | 6.0 | 0.00 | 0.00 | 0.00 | 11 | 1010.8 | |
| 20260902115320 | 86 | 3.0 | 9.0 | 0.00 | 0.00 | 0.00 | 11 | 1011.1 | |
| 20260902114309 | 87 | 1.0 | 5.0 | 0.00 | 0.00 | 0.00 | 11 | 1011.2 | |
| 20260902113258 | 86 | 1.0 | 6.0 | 0.00 | 0.00 | 0.00 | 11 | 1011.2 | |
| 20260902112246 | 86 | 2.0 | 7.0 | 0.00 | 0.00 | 0.00 | 11 | 1011.4 | |
| 20260902111236 | 86 | 1.0 | 6.0 | 0.00 | 0.00 | 0.00 | 11 | 1011.3 | |
| 20260902110216 | 86 | 1.0 | 5.0 | 0.00 | 0.00 | 0.00 | 11 | 1011.3 | |
| 20260902105205 | 84 | 2.0 | 6.0 | 0.00 | 0.00 | 0.00 | 11 | 1011.3 | |
| 20260902104153 | 86 | 1.0 | 4.0 | 0.00 | 0.00 | 0.00 | 11 | 1011.5 | |
| 20260902103142 | 80 | 2.0 | 4.0 | 0.00 | 0.00 | 0.00 | 11 | 1011.5 | |
| 20260902102131 | 80 | 1.0 | 6.0 | 0.00 | 0.00 | 0.00 | 11 | 1011.7 | |
| 20260902101119 | 82 | 3.0 | 8.0 | 0.00 | 0.00 | 0.00 | 11 | 1011.6 | |
| 20260902100108 | 84 | 5.0 | 7.0 | 0.00 | 0.00 | 0.00 | 11 | 1011.6 | |
| 20260902095056 | 86 | 3.0 | 8.0 | 0.00 | 0.00 | 0.00 | 11 | 1011.7 | |
| 20260902094042 | 86 | 0.0 | 7.0 | 0.00 | 0.00 | 0.00 | 11 | 1011.7 | |
| 20260902093021 | 82 | 2.0 | 5.0 | 0.00 | 0.00 | 0.00 | 11 | 1011.7 | |
| 20260902092009 | 82 | 3.0 | 4.0 | 0.00 | 0.00 | 0.00 | 11 | 1011.6 | |
| 20260902090957 | 86 | 1.0 | 5.0 | 0.00 | 0.00 | 0.00 | 11 | 1011.5 | |
| 20260902085944 | 86 | 3.0 | 5.0 | 0.00 | 0.00 | 0.00 | 11 | 1011.6 | |
| 20260902084932 | 87 | 1.0 | 3.0 | 0.00 | 0.00 | 0.00 | 11 | 1011.5 | |
| 20260902083920 | 89 | 0.0 | 3.0 | 0.00 | 0.00 | 0.00 | 11 | 1011.4 | |
| 20260902082908 | 87 | 0.0 | 4.0 | 0.00 | 0.00 | 0.00 | 11 | 1011.2 | |
| 20260902081856 | 82 | 0.0 | 3.0 | 0.00 | 0.00 | 0.00 | 11 | 1011.3 | |
| 20260902080845 | 84 | 0.0 | 4.0 | 0.00 | 0.00 | 0.00 | 11 | 1011.2 | |
| 20260902075833 | 84 | 0.0 | 0.0 | 0.00 | 0.00 | 0.00 | 11 | 1011.2 | |
| 20260902074514 | 86 | 0.0 | 1.0 | 0.00 | 0.00 | 0.00 | 11 | 1011.2 | |
| 20260902073503 | 86 | 0.0 | 0.0 | 0.00 | 0.00 | 0.00 | 11 | 1011.0 | |
| 20260902072451 | 84 | 0.0 | 0.0 | 0.00 | 0.00 | 0.00 | 11 | 1011.0 | |
| 20260902071036 | 82 | 0.0 | 3.0 | 0.00 | 0.00 | 0.00 | 11 | 1010.9 | |
| 20260902070025 | 80 | 0.0 | 0.0 | 0.00 | 0.00 | 0.00 | 11 | 1010.7 | |
| 20260902065011 | 78 | 1.0 | 1.0 | 0.00 | 0.00 | 0.00 | 11 | 1010.8 | |
| 20260902064000 | 78 | 0.0 | 0.0 | 0.00 | 0.00 | 0.00 | 11 | 1010.6 | |
| 20260902062443 | 77 | 0.0 | 0.0 | 0.00 | 0.00 | 0.00 | 11 | 1010.8 | |
| 20260902061230 | 71 | 0.0 | 2.0 | 0.00 | 0.00 | 0.00 | 11 | 1010.7 | |
| 20260902060216 | 71 | 2.0 | 3.0 | 0.00 | 0.00 | 0.00 | 11 | 1010.6 | |
| 20260902055206 | 71 | 0.0 | 1.0 | 0.00 | 0.00 | 0.00 | 11 | 1010.6 | |
| 20260902054150 | 69 | 0.0 | 0.0 | 0.00 | 0.00 | 0.00 | 11 | 1010.6 | |
| 20260902053139 | 69 | 0.0 | 0.0 | 0.00 | 0.00 | 0.00 | 11 | 1010.4 | |
| 20260902052124 | 69 | 0.0 | 1.0 | 0.00 | 0.00 | 0.00 | 11 | 1010.4 | |
| 20260902051113 | 69 | 0.0 | 1.0 | 0.00 | 0.00 | 0.00 | 11 | 1010.4 | |
| 20260902045050 | 69 | 0.0 | 0.0 | 0.00 | 0.00 | 0.00 | 11 | 1010.3 | |
| 20260902044035 | 69 | 0.0 | 1.0 | 0.00 | 0.00 | 0.00 | 11 | 1010.4 | |
| 20260902043023 | 69 | 0.0 | 0.0 | 0.00 | 0.00 | 0.00 | 11 | 1010.5 | |
| 20260902042012 | 69 | 0.0 | 1.0 | 0.00 | 0.00 | 0.00 | 11 | 1010.4 | |
| 20260902041000 | 69 | 0.0 | 1.0 | 0.00 | 0.00 | 0.00 | 11 | 1010.4 | |
| 20260902035848 | 69 | 0.0 | 1.0 | 0.00 | 0.00 | 0.00 | 11 | 1010.3 | |
| 20260902034837 | 71 | 1.0 | 3.0 | 0.00 | 0.00 | 0.00 | 11 | 1010.1 | |
| 20260902033824 | 69 | 0.0 | 1.0 | 0.00 | 0.00 | 0.00 | 11 | 1010.2 | |
| 20260902032813 | 69 | 0.0 | 1.0 | 0.00 | 0.00 | 0.00 | 11 | 1010.3 | |
| 20260902031802 | 69 | 0.0 | 1.0 | 0.00 | 0.00 | 0.00 | 11 | 1010.4 | |
| 20260902030750 | 69 | 0.0 | 1.0 | 0.00 | 0.00 | 0.00 | 11 | 1010.5 | |
| 20260902025734 | 69 | 0.0 | 1.0 | 0.00 | 0.00 | 0.00 | 11 | 1010.4 | |
| 20260902024723 | 69 | 0.0 | 1.0 | 0.00 | 0.00 | 0.00 | 11 | 1010.5 | |
| 20260902023711 | 69 | 0.0 | 0.0 | 0.00 | 0.00 | 0.00 | 11 | 1010.4 | |
| 20260902022657 | 71 | 0.0 | 1.0 | 0.00 | 0.00 | 0.00 | 11 | 1010.3 | |
| 20260902021645 | 71 | 0.0 | 2.0 | 0.00 | 0.00 | 0.00 | 11 | 1010.4 | |
| 20260902020631 | 71 | 0.0 | 1.0 | 0.00 | 0.00 | 0.00 | 11 | 1010.4 | |
| 20260902015519 | 71 | 0.0 | 1.0 | 0.00 | 0.00 | 0.00 | 11 | 1010.5 | |
| 20260902014508 | 71 | 0.0 | 2.0 | 0.00 | 0.00 | 0.00 | 11 | 1010.3 | |
| 20260902013457 | 71 | 0.0 | 1.0 | 0.00 | 0.00 | 0.00 | 11 | 1010.2 | |
| 20260902012444 | 71 | 0.0 | 1.0 | 0.00 | 0.00 | 0.00 | 11 | 1010.3 | |
| 20260902011433 | 71 | 1.0 | 1.0 | 0.00 | 0.00 | 0.00 | 11 | 1010.4 | |
| 20260902010422 | 71 | 0.0 | 3.0 | 0.00 | 0.00 | 0.00 | 11 | 1010.4 | |
| 20260902005410 | 71 | 0.0 | 1.0 | 0.00 | 0.00 | 0.00 | 11 | 1010.5 | |
| 20260902004358 | 71 | 0.0 | 1.0 | 0.00 | 0.00 | 0.00 | 11 | 1010.5 | |
| 20260902003347 | 71 | 0.0 | 1.0 | 0.00 | 0.00 | 0.00 | 11 | 1010.5 | |
| 20260902002336 | 71 | 0.0 | 1.0 | 0.00 | 0.00 | 0.00 | 11 | 1010.4 | |
| 20260902001324 | 71 | 0.0 | 1.0 | 0.00 | 0.00 | 0.00 | 11 | 1010.4 | |
| 20260902000312 | 71 | 0.0 | 0.0 | 0.00 | 0.00 | 0.00 | 11 | 1010.4 | |
| 20260901235154 | 71 | 0.0 | 0.0 | 0.00 | 0.00 | 0.00 | 11 | 1010.5 | |
| 20260901234141 | 71 | 0.0 | 0.0 | 0.00 | 0.00 | 0.00 | 11 | 1010.5 | |
| 20260901233128 | 71 | 0.0 | 1.0 | 0.00 | 0.00 | 0.00 | 11 | 1010.5 | |
| 20260901232117 | 71 | 0.0 | 0.0 | 0.00 | 0.00 | 0.00 | 11 | 1010.6 | |
| 20260901231105 | 73 | 0.0 | 0.0 | 0.00 | 0.00 | 0.00 | 11 | 1010.5 | |
| 20260901230053 | 73 | 0.0 | 1.0 | 0.00 | 0.00 | 0.00 | 11 | 1010.6 | |
| 20260901225041 | 73 | 0.0 | 2.0 | 0.00 | 0.00 | 0.00 | 11 | 1010.4 | |
| 20260901224030 | 73 | 0.0 | 1.0 | 0.00 | 0.00 | 0.00 | 11 | 1010.5 | |
| 20260901223016 | 73 | 0.0 | 0.0 | 0.00 | 0.00 | 0.00 | 11 | 1010.3 | |
| 20260901222001 | 73 | 0.0 | 0.0 | 0.00 | 0.00 | 0.00 | 11 | 1010.5 | |
| 20260901220948 | 73 | 0.0 | 1.0 | 0.00 | 0.00 | 0.00 | 11 | 1010.4 | |
| 20260901215936 | 73 | 0.0 | 0.0 | 0.00 | 0.00 | 0.00 | 11 | 1010.4 | |
| 20260901214925 | 73 | 0.0 | 0.0 | 0.00 | 0.00 | 0.00 | 11 | 1010.4 | |
| 20260901213913 | 73 | 0.0 | 0.0 | 0.00 | 0.00 | 0.00 | 11 | 1010.5 | |
| 20260901212856 | 73 | 0.0 | 0.0 | 0.00 | 0.00 | 0.00 | 11 | 1010.4 | |
| 20260901211135 | 73 | 0.0 | 0.0 | 0.00 | 0.00 | 0.00 | 11 | 1010.4 | |
| 20260901205618 | 75 | 0.0 | 0.0 | 0.00 | 0.00 | 0.00 | 11 | 1010.3 | |
| 20260901204202 | 75 | 0.0 | 0.0 | 0.00 | 0.00 | 0.00 | 11 | 1010.2 | |
| 20260901203151 | 75 | 0.0 | 0.0 | 0.00 | 0.00 | 0.00 | 11 | 1010.3 | |
| 20260901201121 | 75 | 0.0 | 0.0 | 0.00 | 0.00 | 0.00 | 11 | 1010.1 | |
| 20260901200109 | 75 | 0.0 | 0.0 | 0.00 | 0.00 | 0.00 | 11 | 1010.1 | |
| 20260901195057 | 77 | 0.0 | 0.0 | 0.00 | 0.00 | 0.00 | 11 | 1010.1 | |
| 20260901194046 | 77 | 0.0 | 0.0 | 0.00 | 0.00 | 0.00 | 11 | 1010.0 | |
| 20260901192930 | 77 | 0.0 | 0.0 | 0.00 | 0.00 | 0.00 | 11 | 1010.1 | |
| 20260901191701 | 77 | 0.0 | 0.0 | 0.00 | 0.00 | 0.00 | 11 | 1010.0 | |
| 20260901190343 | 78 | 0.0 | 0.0 | 0.00 | 0.00 | 0.00 | 11 | 1009.7 | |
| 20260901184623 | 78 | 0.0 | 1.0 | 0.00 | 0.00 | 0.00 | 11 | 1009.6 | |
| 20260901183612 | 78 | 0.0 | 2.0 | 0.00 | 0.00 | 0.00 | 11 | 1009.6 | |
| 20260901182601 | 78 | 1.0 | 3.0 | 0.00 | 0.00 | 0.00 | 11 | 1009.4 | |
| 20260901181549 | 78 | 0.0 | 7.0 | 0.00 | 0.00 | 0.00 | 11 | 1009.6 | |
| 20260901180537 | 78 | 3.0 | 5.0 | 0.00 | 0.00 | 0.00 | 11 | 1009.5 | |
| 20260901175525 | 80 | 2.0 | 3.0 | 0.00 | 0.00 | 0.00 | 11 | 1009.3 | |
| 20260901174510 | 80 | 4.0 | 6.0 | 0.00 | 0.00 | 0.00 | 11 | 1009.1 | |
| 20260901173500 | 80 | 0.0 | 4.0 | 0.00 | 0.00 | 0.00 | 11 | 1009.1 | |
| 20260901172446 | 80 | 0.0 | 1.0 | 0.00 | 0.00 | 0.00 | 11 | 1009.0 | |
| 20260901171434 | 82 | 1.0 | 1.0 | 0.00 | 0.00 | 0.00 | 11 | 1009.0 | |
| 20260901170422 | 82 | 0.0 | 1.0 | 0.00 | 0.00 | 0.00 | 11 | 1009.1 | |
| 20260901165408 | 82 | 0.0 | 3.0 | 0.00 | 0.00 | 0.00 | 11 | 1009.1 | |
| 20260901164357 | 82 | 2.0 | 4.0 | 0.00 | 0.00 | 0.00 | 11 | 1009.2 | |
| 20260901163346 | 82 | 3.0 | 4.0 | 0.00 | 0.00 | 0.00 | 11 | 1009.2 | |
| 20260901162334 | 82 | 0.0 | 3.0 | 0.00 | 0.00 | 0.00 | 11 | 1009.2 | |
| 20260901161322 | 82 | 2.0 | 6.0 | 0.00 | 0.00 | 0.00 | 11 | 1009.3 | |
| 20260901160310 | 82 | 1.0 | 5.0 | 0.00 | 0.00 | 0.00 | 11 | 1009.2 | |
| 20260901155259 | 82 | 1.0 | 5.0 | 0.00 | 0.00 | 0.00 | 11 | 1009.2 | |
| 20260901154248 | 84 | 1.0 | 7.0 | 0.00 | 0.00 | 0.00 | 11 | 1009.2 | |
| 20260901153132 | 84 | 4.0 | 7.0 | 0.00 | 0.00 | 0.00 | 11 | 1009.3 | |
| 20260901152120 | 86 | 3.0 | 4.0 | 0.00 | 0.00 | 0.00 | 11 | 1009.2 |